,,,PA_Meas_PMT16A,,PR_Meas_QMR101_102,,RH_Meas_QMH101,,SR_Meas_QMS101,,TA_Meas_QMH101,,GenWind,,GenWind,
date,time,status,PA,status,PR,status,RH,status,SR,status,TA,status,DirAvg,status,SpdAvg,
2011-03-28, 00:00:04,VALID,1002.97,VALID,0,INVALID,163.632,VALID,0,VALID,25.3955,VALID,275,VALID,2.30547,
2011-03-28, 00:01:04,VALID,1002.96,VALID,0,INVALID,163.624,VALID,0,VALID,25.4558,VALID,295,VALID,0.84375,
2011-03-28, 00:02:04,VALID,1002.95,VALID,0,INVALID,163.594,VALID,0,VALID,25.4558,VALID,281,VALID,1.01172,
2011-03-28, 00:03:04,VALID,1002.92,VALID,0,INVALID,163.594,VALID,0,VALID,25.4539,VALID,274,VALID,1.94414,
2011-03-28, 00:04:04,VALID,1002.92,VALID,0,INVALID,154.294,VALID,0,VALID,25.4734,VALID,273,VALID,2.00508,
2011-03-28, 00:05:04,VALID,1002.92,VALID,0,INVALID,155.934,VALID,0,VALID,25.4928,VALID,263,VALID,1.40742,
2011-03-28, 00:06:04,VALID,1002.85,VALID,0,INVALID,151.235,VALID,0,VALID,25.5123,VALID,240,VALID,1.88906,
2011-03-28, 00:07:04,VALID,1002.9,VALID,0,INVALID,150.541,VALID,0,VALID,25.5318,VALID,275,VALID,2.26602,
2011-03-28, 00:08:04,VALID,1002.87,VALID,0,INVALID,139.082,VALID,0,VALID,25.5513,VALID,245,VALID,3.63242,
2011-03-28, 00:09:04,VALID,1002.86,VALID,0,INVALID,142.012,VALID,0,VALID,25.6116,VALID,273,VALID,1.92734,
2011-03-28, 00:10:04,VALID,1002.87,VALID,0,INVALID,154.363,VALID,0,VALID,25.6116,VALID,271,VALID,1.8207,
2011-03-28, 00:11:04,VALID,1002.78,VALID,0,INVALID,155.896,VALID,0,VALID,25.6116,VALID,280,VALID,2.04805,
2011-03-28, 00:12:04,VALID,1002.84,VALID,0,INVALID,163.334,VALID,0,VALID,25.5902,VALID,220,VALID,1.12773,
2011-03-28, 00:13:04,VALID,1002.78,VALID,0,INVALID,152.242,VALID,0,VALID,25.6116,VALID,250,VALID,1.67891,
2011-03-28, 00:14:04,VALID,1002.84,VALID,0,INVALID,140.402,VALID,0,VALID,25.6292,VALID,263,VALID,2.54492,
2011-03-28, 00:15:04,VALID,1002.82,VALID,0,INVALID,138.373,VALID,0,VALID,25.6292,VALID,253,VALID,1.87344,
2011-03-28, 00:16:04,VALID,1002.75,VALID,0,INVALID,131.697,VALID,0,VALID,25.6097,VALID,278,VALID,2.95234,
2011-03-28, 00:17:04,VALID,1002.78,VALID,0,INVALID,137.183,VALID,0,VALID,25.6097,VALID,191,VALID,1.07695,
2011-03-28, 00:18:04,VALID,1002.79,VALID,0,INVALID,138.792,VALID,0,VALID,25.6097,VALID,252,VALID,1.45352,
2011-03-28, 00:19:04,VALID,1002.79,VALID,0,INVALID,149.984,VALID,0,VALID,25.5707,VALID,251,VALID,1.38047,
2011-03-28, 00:20:04,VALID,1002.76,VALID,0,INVALID,149.435,VALID,0,VALID,25.5727,VALID,250,VALID,1.32617,
2011-03-28, 00:21:04,VALID,1002.73,VALID,0,INVALID,155.156,VALID,0,VALID,25.5707,VALID,270,VALID,1.91992,
2011-03-28, 00:22:04,VALID,1002.71,VALID,0,INVALID,132.956,VALID,0,VALID,25.6116,VALID,282,VALID,0.797656,
2011-03-28, 00:23:04,VALID,1002.68,VALID,0,INVALID,133.986,VALID,0,VALID,25.6116,VALID,247,VALID,1.93359,
2011-03-28, 00:24:04,VALID,1002.67,VALID,0,INVALID,137.389,VALID,0,VALID,25.6097,VALID,281,VALID,0.875391,
2011-03-28, 00:25:04,VALID,1002.6,VALID,0,INVALID,128.638,VALID,0,VALID,25.6097,VALID,264,VALID,1.63789,
2011-03-28, 00:26:04,VALID,1002.59,VALID,0,INVALID,124.114,VALID,0,VALID,25.6311,VALID,269,VALID,2.17383,
2011-03-28, 00:27:04,VALID,1002.56,VALID,0,INVALID,122.07,VALID,0,VALID,25.6506,VALID,266,VALID,2.04844,
2011-03-28, 00:28:04,VALID,1002.55,VALID,0,INVALID,119.804,VALID,0,VALID,25.6486,VALID,286,VALID,0.980078,
2011-03-28, 00:29:04,VALID,1002.55,VALID,0,INVALID,129.47,VALID,0,VALID,25.6486,VALID,258,VALID,1.11172,
2011-03-28, 00:30:04,VALID,1002.49,VALID,0,INVALID,127.372,VALID,0,VALID,25.6292,VALID,246,VALID,1.43867,
2011-03-28, 00:31:04,VALID,1002.49,VALID,0,INVALID,127.181,VALID,0,VALID,25.6486,VALID,263,VALID,2.73242,
2011-03-28, 00:32:04,VALID,1002.47,VALID,0,INVALID,129.905,VALID,0,VALID,25.6895,VALID,285,VALID,1.4543,
2011-03-28, 00:33:04,VALID,1002.44,VALID,0,INVALID,140.402,VALID,0,VALID,25.6895,VALID,208,VALID,0.751953,
2011-03-28, 00:34:04,VALID,1002.4,VALID,0,INVALID,130.988,VALID,0,VALID,25.6876,VALID,222,VALID,1.4082,
2011-03-28, 00:35:04,VALID,1002.42,VALID,0,INVALID,130.774,VALID,0,VALID,25.6876,VALID,264,VALID,1.67539,
2011-03-28, 00:36:04,VALID,1002.37,VALID,0,INVALID,132.552,VALID,0,VALID,25.6876,VALID,259,VALID,1.44297,
2011-03-28, 00:37:04,VALID,1002.37,VALID,0,INVALID,130.24,VALID,0,VALID,25.6876,VALID,255,VALID,1.45664,
2011-03-28, 00:38:04,VALID,1002.31,VALID,0,INVALID,140.364,VALID,0,VALID,25.7265,VALID,269,VALID,0.883594,
2011-03-28, 00:39:04,VALID,1002.27,VALID,0,INVALID,139.258,VALID,0,VALID,25.6876,VALID,286,VALID,1.50586,
2011-03-28, 00:40:04,VALID,1002.28,VALID,0,INVALID,163.54,VALID,0,VALID,25.6486,VALID,294,VALID,0.621875,
2011-03-28, 00:41:04,VALID,1002.27,VALID,0,INVALID,163.601,VALID,0,VALID,25.6116,VALID,270,VALID,0.698828,
2011-03-28, 00:42:04,VALID,1002.24,VALID,0,INVALID,163.586,VALID,0,VALID,25.5318,VALID,279,VALID,1.17813,
2011-03-28, 00:43:04,VALID,1002.21,VALID,0,INVALID,163.624,VALID,0,VALID,25.4539,VALID,306,VALID,1.36602,
2011-03-28, 00:44:04,VALID,1002.21,VALID,0,INVALID,163.601,VALID,0,VALID,25.4363,VALID,297,VALID,0.292969,
2011-03-28, 00:45:04,VALID,1002.23,VALID,0,INVALID,163.647,VALID,0,VALID,25.3565,VALID,243,VALID,0.794141,
2011-03-28, 00:46:04,VALID,1002.22,VALID,0,INVALID,163.647,VALID,0,VALID,25.3195,VALID,288,VALID,1.68945,
2011-03-28, 00:47:04,VALID,1002.15,VALID,0,INVALID,163.647,VALID,0,VALID,25.2397,VALID,283,VALID,1.97344,
2011-03-28, 00:48:04,VALID,1002.12,VALID,0,INVALID,163.662,VALID,0,VALID,25.1618,VALID,297,VALID,0.965234,
2011-03-28, 00:49:04,VALID,1002.1,VALID,0,INVALID,163.662,VALID,0,VALID,25.0839,VALID,310,VALID,1.3,
2011-03-28, 00:50:04,VALID,1002.08,VALID,0,INVALID,163.639,VALID,0,VALID,25.0469,VALID,278,VALID,1.94414,
2011-03-28, 00:51:04,VALID,1002.07,VALID,0,INVALID,163.662,VALID,0,VALID,24.9885,VALID,301,VALID,2,
2011-03-28, 00:52:04,VALID,1002.05,VALID,0,INVALID,163.647,VALID,0,VALID,24.9282,VALID,291,VALID,2.09727,
2011-03-28, 00:53:04,VALID,1002.05,VALID,0,INVALID,163.662,VALID,0,VALID,24.93,VALID,298,VALID,2.57227,
2011-03-28, 00:54:04,VALID,1002.01,VALID,0,INVALID,163.67,VALID,0,VALID,24.8697,VALID,294,VALID,1.86094,
2011-03-28, 00:55:04,VALID,1002,VALID,0,INVALID,163.662,VALID,0,VALID,24.8716,VALID,298,VALID,1.11445,
2011-03-28, 00:56:04,VALID,1002.01,VALID,0,INVALID,163.67,VALID,0,VALID,24.8522,VALID,296,VALID,1.76211,
2011-03-28, 00:57:04,VALID,1001.97,VALID,0,INVALID,163.685,VALID,0,VALID,24.7937,VALID,279,VALID,1.41602,
2011-03-28, 00:58:04,VALID,1001.97,VALID,0,INVALID,163.67,VALID,0,VALID,24.7529,VALID,300,VALID,0.752344,
2011-03-28, 00:59:04,VALID,1001.96,VALID,0,INVALID,163.655,VALID,0,VALID,24.7335,VALID,291,VALID,0.950391,
2011-03-28, 01:00:04,VALID,1001.97,VALID,0,INVALID,163.662,VALID,0,VALID,24.6964,VALID,303,VALID,2.19453,
2011-03-28, 01:01:04,VALID,1001.98,VALID,0,INVALID,163.678,VALID,0,VALID,24.6361,VALID,288,VALID,1.50547,
2011-03-28, 01:02:04,VALID,1001.98,VALID,0,INVALID,163.708,VALID,0,VALID,24.6166,VALID,328,VALID,0.900781,
2011-03-28, 01:03:04,VALID,1001.98,VALID,0,INVALID,163.708,VALID,0,VALID,24.599,VALID,278,VALID,1.36563,
2011-03-28, 01:04:04,VALID,1001.98,VALID,0,INVALID,163.701,VALID,0,VALID,24.5601,VALID,301,VALID,1.53125,
2011-03-28, 01:05:04,VALID,1001.99,VALID,0.5,INVALID,163.693,VALID,0,VALID,24.5017,VALID,285,VALID,1.3082,
2011-03-28, 01:06:04,VALID,1001.96,VALID,0,INVALID,163.693,VALID,0,VALID,24.4804,VALID,287,VALID,1.50078,
2011-03-28, 01:07:04,VALID,1001.95,VALID,0,INVALID,163.701,VALID,0,VALID,24.4609,VALID,297,VALID,1.42461,
2011-03-28, 01:08:04,VALID,1001.94,VALID,0,INVALID,163.716,VALID,0,VALID,24.4025,VALID,336,VALID,1.20117,
2011-03-28, 01:09:04,VALID,1001.92,VALID,0,INVALID,163.708,VALID,0,VALID,24.4043,VALID,332,VALID,0.970312,
2011-03-28, 01:10:04,VALID,1001.89,VALID,0,INVALID,163.731,VALID,0,VALID,24.4257,VALID,340,VALID,1.04531,
2011-03-28, 01:11:04,VALID,1001.88,VALID,0,INVALID,163.693,VALID,0,VALID,24.3849,VALID,331,VALID,0.894922,
2011-03-28, 01:12:04,VALID,1001.86,VALID,0,INVALID,163.685,VALID,0,VALID,24.3654,VALID,241,VALID,0.323438,
2011-03-28, 01:13:04,VALID,1001.85,VALID,0,INVALID,163.723,VALID,0,VALID,24.3654,VALID,291,VALID,0.957422,
2011-03-28, 01:14:04,VALID,1001.83,VALID,0,INVALID,163.708,VALID,0,VALID,24.3052,VALID,294,VALID,0.510938,
2011-03-28, 01:15:04,VALID,1001.81,VALID,0,INVALID,163.716,VALID,0,VALID,24.3265,VALID,294,VALID,0.274609,
2011-03-28, 01:16:04,VALID,1001.79,VALID,0,INVALID,163.701,VALID,0,VALID,24.3052,VALID,342,VALID,0.547656,
2011-03-28, 01:17:04,VALID,1001.8,VALID,0,INVALID,163.708,VALID,0,VALID,24.307,VALID,292,VALID,0.670703,
2011-03-28, 01:18:04,VALID,1001.8,VALID,0,INVALID,163.693,VALID,0,VALID,24.3246,VALID,291,VALID,0.701953,
2011-03-28, 01:19:04,VALID,1001.72,VALID,0,INVALID,163.708,VALID,0,VALID,24.3459,VALID,340,VALID,1.11094,
2011-03-28, 01:20:04,VALID,1001.74,VALID,0,INVALID,163.716,VALID,0,VALID,24.3849,VALID,282,VALID,1.975,
2011-03-28, 01:21:04,VALID,1001.68,VALID,0,INVALID,163.701,VALID,0,VALID,24.4628,VALID,1,VALID,1.80977,
2011-03-28, 01:22:04,VALID,1001.69,VALID,0,INVALID,163.708,VALID,0,VALID,24.5193,VALID,294,VALID,1.67461,
2011-03-28, 01:23:04,VALID,1001.7,VALID,0,INVALID,163.685,VALID,0,VALID,24.5777,VALID,322,VALID,1.51172,
2011-03-28, 01:24:04,VALID,1001.7,VALID,0,INVALID,163.67,VALID,0,VALID,24.6574,VALID,285,VALID,0.668359,
2011-03-28, 01:25:04,VALID,1001.69,VALID,0,INVALID,163.701,VALID,0,VALID,24.6769,VALID,280,VALID,1.02031,
2011-03-28, 01:26:04,VALID,1001.68,VALID,0,INVALID,163.701,VALID,0,VALID,24.6361,VALID,299,VALID,0.780859,
2011-03-28, 01:27:04,VALID,1001.67,VALID,0,INVALID,163.685,VALID,0,VALID,24.6574,VALID,294,VALID,1.55625,
2011-03-28, 01:28:04,VALID,1001.64,VALID,0,INVALID,163.685,VALID,0,VALID,24.6556,VALID,265,VALID,0.873438,
2011-03-28, 01:29:04,VALID,1001.62,VALID,0,INVALID,163.701,VALID,0,VALID,24.675,VALID,277,VALID,0.419922,
2011-03-28, 01:30:04,VALID,1001.61,VALID,0,INVALID,163.67,VALID,0,VALID,24.6964,VALID,321,VALID,0.649609,
2011-03-28, 01:31:04,VALID,1001.59,VALID,0,INVALID,163.685,VALID,0,VALID,24.7159,VALID,352,VALID,0.876562,
2011-03-28, 01:32:04,VALID,1001.6,VALID,0,INVALID,163.708,VALID,0,VALID,24.6556,VALID,270,VALID,0.814062,
2011-03-28, 01:33:04,VALID,1001.58,VALID,0,INVALID,163.716,VALID,0,VALID,24.6361,VALID,299,VALID,0.611719,
2011-03-28, 01:34:04,VALID,1001.56,VALID,0,INVALID,163.647,VALID,0,VALID,24.6166,VALID,255,VALID,1.66953,
2011-03-28, 01:35:04,VALID,1001.56,VALID,0,INVALID,163.67,VALID,0,VALID,24.5972,VALID,295,VALID,1.72187,
2011-03-28, 01:36:04,VALID,1001.56,VALID,0,INVALID,163.693,VALID,0,VALID,24.6166,VALID,292,VALID,0.390234,
2011-03-28, 01:37:04,VALID,1001.54,VALID,0,INVALID,163.678,VALID,0,VALID,24.638,VALID,291,VALID,0.459766,
2011-03-28, 01:38:04,VALID,1001.52,VALID,0,INVALID,163.693,VALID,0,VALID,24.6166,VALID,287,VALID,0.507031,
2011-03-28, 01:39:04,VALID,1001.51,VALID,0,INVALID,163.685,VALID,0,VALID,24.6166,VALID,343,VALID,0.632031,
2011-03-28, 01:40:04,VALID,1001.48,VALID,0,INVALID,163.701,VALID,0,VALID,24.6185,VALID,342,VALID,0.167578,
2011-03-28, 01:41:04,VALID,1001.47,VALID,0,INVALID,163.693,VALID,0,VALID,24.5972,VALID,307,VALID,0.601172,
2011-03-28, 01:42:04,VALID,1001.44,VALID,0,INVALID,163.685,VALID,0,VALID,24.5777,VALID,301,VALID,0.889844,
2011-03-28, 01:43:04,VALID,1001.4,VALID,0,INVALID,163.693,VALID,0,VALID,24.638,VALID,286,VALID,0.844922,
2011-03-28, 01:44:04,VALID,1001.39,VALID,0,INVALID,163.708,VALID,0,VALID,24.6361,VALID,306,VALID,0.927344,
2011-03-28, 01:45:04,VALID,1001.37,VALID,0,INVALID,163.685,VALID,0,VALID,24.6945,VALID,305,VALID,0.740234,
2011-03-28, 01:46:04,VALID,1001.35,VALID,0,INVALID,163.693,VALID,0,VALID,24.7529,VALID,255,VALID,1.03203,
2011-03-28, 01:47:04,VALID,1001.34,VALID,0,INVALID,163.662,VALID,0,VALID,24.8308,VALID,282,VALID,0.734375,
2011-03-28, 01:48:04,VALID,1001.35,VALID,0,INVALID,163.678,VALID,0,VALID,24.969,VALID,250,VALID,0.729688,
2011-03-28, 01:49:04,VALID,1001.3,VALID,0,INVALID,163.67,VALID,0,VALID,25.045,VALID,227,VALID,1.075,
2011-03-28, 01:50:04,VALID,1001.3,VALID,0,INVALID,163.655,VALID,0,VALID,25.1637,VALID,192,VALID,0.862891,
2011-03-28, 01:51:04,VALID,1001.27,VALID,0,INVALID,163.624,VALID,0,VALID,25.2007,VALID,194,VALID,0.717969,
2011-03-28, 01:52:04,VALID,1001.29,VALID,0,INVALID,163.647,VALID,0,VALID,25.2592,VALID,259,VALID,0.793359,
2011-03-28, 01:53:04,VALID,1001.23,VALID,0,INVALID,163.632,VALID,0,VALID,25.2981,VALID,236,VALID,0.827734,
2011-03-28, 01:54:04,VALID,1001.24,VALID,0,INVALID,163.624,VALID,0.100563,VALID,25.337,VALID,283,VALID,0.950391,
2011-03-28, 01:55:04,VALID,1001.22,VALID,0,INVALID,163.624,VALID,0,VALID,25.3565,VALID,250,VALID,1.01563,
2011-03-28, 01:56:04,VALID,1001.22,VALID,0,INVALID,163.632,VALID,0,VALID,25.4149,VALID,257,VALID,0.718359,
2011-03-28, 01:57:04,VALID,1001.2,VALID,0,INVALID,163.617,VALID,0,VALID,25.4344,VALID,295,VALID,1.0043,
2011-03-28, 01:58:04,VALID,1001.2,VALID,0,INVALID,163.624,VALID,0.100563,VALID,25.4734,VALID,180,VALID,0.478906,
2011-03-28, 01:59:04,VALID,1001.18,VALID,0,INVALID,163.601,VALID,0,VALID,25.4734,VALID,250,VALID,1.05313,
2011-03-28, 02:00:04,VALID,1001.15,VALID,0,INVALID,163.601,VALID,0,VALID,25.4928,VALID,266,VALID,1.37891,
2011-03-28, 02:01:04,VALID,1001.12,VALID,0,INVALID,163.617,VALID,0,VALID,25.4928,VALID,232,VALID,0.715625,
2011-03-28, 02:02:04,VALID,1001.11,VALID,0,INVALID,163.609,VALID,0,VALID,25.4928,VALID,245,VALID,0.642187,
2011-03-28, 02:03:04,VALID,1001.14,VALID,0,INVALID,163.601,VALID,0,VALID,25.4928,VALID,273,VALID,1.08203,
2011-03-28, 02:04:04,VALID,1001.14,VALID,0,INVALID,163.617,VALID,0,VALID,25.5123,VALID,235,VALID,1.02148,
2011-03-28, 02:05:04,VALID,1001.12,VALID,0,INVALID,163.594,VALID,0,VALID,25.5123,VALID,268,VALID,0.751172,
2011-03-28, 02:06:04,VALID,1001.07,VALID,0,INVALID,163.586,VALID,0,VALID,25.5318,VALID,253,VALID,1.02422,
2011-03-28, 02:07:04,VALID,1001.11,VALID,0,INVALID,163.624,VALID,0,VALID,25.5707,VALID,266,VALID,1.34453,
2011-03-28, 02:08:04,VALID,1001.11,VALID,0,INVALID,163.601,VALID,0,VALID,25.6116,VALID,262,VALID,1.09648,
2011-03-28, 02:09:04,VALID,1001.1,VALID,0,INVALID,163.609,VALID,0,VALID,25.6097,VALID,182,VALID,0.917188,
2011-03-28, 02:10:04,VALID,1001.05,VALID,0,INVALID,163.586,VALID,0,VALID,25.6097,VALID,203,VALID,1.2625,
2011-03-28, 02:11:04,VALID,1001.06,VALID,0,INVALID,163.617,VALID,0,VALID,25.6311,VALID,218,VALID,0.558594,
2011-03-28, 02:12:04,VALID,1001.04,VALID,0,INVALID,163.594,VALID,0,VALID,25.6097,VALID,280,VALID,1.33398,
2011-03-28, 02:13:04,VALID,1001.08,VALID,0,INVALID,157.376,VALID,0,VALID,25.6506,VALID,260,VALID,1.1457,
2011-03-28, 02:14:04,VALID,1001.07,VALID,0,INVALID,130.187,VALID,0,VALID,25.67,VALID,251,VALID,1.42188,
2011-03-28, 02:15:04,VALID,1001.04,VALID,0,INVALID,111.466,VALID,0,VALID,25.6681,VALID,277,VALID,1.11758,
2011-03-28, 02:16:04,VALID,1001.05,VALID,0,VALID,104,VALID,0,VALID,25.7265,VALID,205,VALID,1.06133,
2011-03-28, 02:17:04,VALID,1001.05,VALID,0,VALID,103.844,VALID,0,VALID,25.7265,VALID,248,VALID,0.521094,
2011-03-28, 02:18:04,VALID,1001.05,VALID,0,VALID,103.722,VALID,0,VALID,25.748,VALID,249,VALID,0.739844,
2011-03-28, 02:19:04,VALID,1001.02,VALID,0,VALID,103.654,VALID,0,VALID,25.7285,VALID,295,VALID,1.13086,
2011-03-28, 02:20:04,VALID,1001.04,VALID,0,VALID,103.249,VALID,0,VALID,25.7694,VALID,254,VALID,1.00664,
2011-03-28, 02:21:04,VALID,1001.06,VALID,0,VALID,102.822,VALID,0,VALID,25.7674,VALID,260,VALID,0.685547,
2011-03-28, 02:22:04,VALID,1001.06,VALID,0,VALID,104,VALID,0,VALID,25.7674,VALID,267,VALID,1.39297,
2011-03-28, 02:23:04,VALID,1001.04,VALID,0,VALID,102.807,VALID,0,VALID,25.746,VALID,295,VALID,1.70703,
2011-03-28, 02:24:04,VALID,1001.01,VALID,0,VALID,101.258,VALID,0,VALID,25.7265,VALID,241,VALID,1.44414,
2011-03-28, 02:25:04,VALID,1001.01,VALID,0,VALID,102.334,VALID,0,VALID,25.7655,VALID,270,VALID,1.70352,
2011-03-28, 02:26:04,VALID,1001.02,VALID,0,VALID,102.204,VALID,0,VALID,25.785,VALID,239,VALID,1.1332,
2011-03-28, 02:27:04,VALID,1001.02,VALID,0,VALID,103.905,VALID,0,VALID,25.8064,VALID,256,VALID,0.990625,
2011-03-28, 02:28:04,VALID,1001,VALID,0,VALID,104,VALID,0,VALID,25.8044,VALID,228,VALID,1.11914,
2011-03-28, 02:29:04,VALID,1001.03,VALID,0,VALID,104,VALID,0,VALID,25.8259,VALID,270,VALID,1.20039,
2011-03-28, 02:30:04,VALID,1001.04,VALID,0,VALID,104,VALID,0,VALID,25.8453,VALID,282,VALID,1.31602,
2011-03-28, 02:31:04,VALID,1001.03,VALID,0,VALID,104,VALID,0,VALID,25.8648,VALID,280,VALID,0.987891,
2011-03-28, 02:32:04,VALID,1001.02,VALID,0,VALID,104,VALID,0,VALID,25.8434,VALID,263,VALID,1.02266,
2011-03-28, 02:33:04,VALID,1001.04,VALID,0,INVALID,109.589,VALID,0,VALID,25.9038,VALID,282,VALID,1.83555,
2011-03-28, 02:34:04,VALID,1001.05,VALID,0,INVALID,112.358,VALID,0,VALID,25.9038,VALID,266,VALID,1.10664,
2011-03-28, 02:35:04,VALID,1001.07,VALID,0,VALID,104,VALID,0,VALID,25.9252,VALID,291,VALID,2.12305,
2011-03-28, 02:36:04,VALID,1001.08,VALID,0,VALID,104,VALID,0,VALID,25.9622,VALID,278,VALID,0.980469,
2011-03-28, 02:37:04,VALID,1001.12,VALID,0,VALID,104,VALID,0,VALID,25.9817,VALID,272,VALID,0.924219,
2011-03-28, 02:38:04,VALID,1001.11,VALID,0,INVALID,118.827,VALID,0,VALID,25.9622,VALID,244,VALID,0.751953,
2011-03-28, 02:39:04,VALID,1001.12,VALID,0,INVALID,163.525,VALID,0,VALID,25.9018,VALID,251,VALID,0.623047,
2011-03-28, 02:40:04,VALID,1001.14,VALID,0.5,INVALID,163.586,VALID,0,VALID,25.7655,VALID,248,VALID,1.24922,
2011-03-28, 02:41:04,VALID,1001.13,VALID,0,INVALID,163.609,VALID,0,VALID,25.6311,VALID,345,VALID,1.8207,
2011-03-28, 02:42:04,VALID,1001.03,VALID,0,INVALID,163.639,VALID,0,VALID,25.4558,VALID,277,VALID,4.03047,
2011-03-28, 02:43:04,VALID,1001.13,VALID,0,INVALID,163.662,VALID,0,VALID,25.2592,VALID,328,VALID,1.29961,
2011-03-28, 02:44:04,VALID,1001.12,VALID,0,INVALID,163.662,VALID,0,VALID,25.1034,VALID,275,VALID,0.270312,
2011-03-28, 02:45:04,VALID,1001.11,VALID,0,INVALID,163.662,VALID,0,VALID,24.9671,VALID,304,VALID,0.819531,
2011-03-28, 02:46:04,VALID,1001.14,VALID,0,INVALID,163.662,VALID,0,VALID,24.8716,VALID,245,VALID,0.451953,
2011-03-28, 02:47:04,VALID,1001.11,VALID,0,INVALID,163.662,VALID,0,VALID,24.7529,VALID,345,VALID,1.12344,
2011-03-28, 02:48:04,VALID,1001.09,VALID,0,INVALID,163.701,VALID,0,VALID,24.6556,VALID,317,VALID,0.939062,
2011-03-28, 02:49:04,VALID,1001.09,VALID,0,INVALID,163.701,VALID,0,VALID,24.6009,VALID,284,VALID,0.5,
2011-03-28, 02:50:04,VALID,1001.05,VALID,0,INVALID,163.716,VALID,0,VALID,24.5212,VALID,287,VALID,0.559766,
2011-03-28, 02:51:04,VALID,1001.07,VALID,0,INVALID,163.693,VALID,0,VALID,24.4822,VALID,292,VALID,1.78398,
2011-03-28, 02:52:04,VALID,1001.08,VALID,0,INVALID,163.716,VALID,0,VALID,24.422,VALID,349,VALID,1.28867,
2011-03-28, 02:53:04,VALID,1001.05,VALID,0,INVALID,163.708,VALID,0,VALID,24.3636,VALID,242,VALID,0.853125,
2011-03-28, 02:54:04,VALID,1001.03,VALID,0,INVALID,163.723,VALID,0,VALID,24.3052,VALID,281,VALID,1.01055,
2011-03-28, 02:55:04,VALID,1001.02,VALID,0,INVALID,163.716,VALID,0,VALID,24.2875,VALID,335,VALID,0.855469,
2011-03-28, 02:56:04,VALID,1001.05,VALID,0,INVALID,163.708,VALID,0,VALID,24.2468,VALID,281,VALID,0.921484,
2011-03-28, 02:57:04,VALID,1001,VALID,0,INVALID,163.716,VALID,0,VALID,24.2486,VALID,282,VALID,0.646484,
2011-03-28, 02:58:04,VALID,1001.02,VALID,0,INVALID,163.723,VALID,0,VALID,24.2078,VALID,302,VALID,0.512109,
2011-03-28, 02:59:04,VALID,1001.02,VALID,0,INVALID,163.739,VALID,0,VALID,24.2097,VALID,281,VALID,1.93008,
2011-03-28, 03:00:04,VALID,1000.97,VALID,0,INVALID,163.723,VALID,0,VALID,24.1884,VALID,333,VALID,0.602344,
2011-03-28, 03:01:04,VALID,1000.98,VALID,0,INVALID,163.723,VALID,0,VALID,24.1902,VALID,284,VALID,0.858984,
2011-03-28, 03:02:04,VALID,1000.98,VALID,0,INVALID,163.723,VALID,0,VALID,24.1494,VALID,266,VALID,0.575391,
2011-03-28, 03:03:04,VALID,1001,VALID,0,INVALID,163.723,VALID,0,VALID,24.1707,VALID,302,VALID,0.698828,
2011-03-28, 03:04:04,VALID,1000.97,VALID,0,INVALID,163.731,VALID,0,VALID,24.1494,VALID,279,VALID,0.25625,
2011-03-28, 03:05:04,VALID,1000.99,VALID,0,INVALID,163.731,VALID,0,VALID,24.1513,VALID,277,VALID,0.410937,
2011-03-28, 03:06:04,VALID,1000.98,VALID,0,INVALID,163.723,VALID,0,VALID,24.13,VALID,281,VALID,0.283203,
2011-03-28, 03:07:04,VALID,1001,VALID,0,INVALID,163.739,VALID,0,VALID,24.13,VALID,312,VALID,0.0742188,
2011-03-28, 03:08:04,VALID,1000.97,VALID,0,INVALID,163.731,VALID,0,VALID,24.091,VALID,308,VALID,0.648438,
2011-03-28, 03:09:04,VALID,1001,VALID,0,INVALID,163.746,VALID,0,VALID,24.091,VALID,332,VALID,0.45625,
2011-03-28, 03:10:04,VALID,1001,VALID,0,INVALID,163.731,VALID,0,VALID,24.091,VALID,335,VALID,0.459766,
2011-03-28, 03:11:04,VALID,1001,VALID,0,INVALID,163.708,VALID,0,VALID,24.091,VALID,335,VALID,0,
2011-03-28, 03:12:04,VALID,1001.01,VALID,0,INVALID,163.723,VALID,0,VALID,24.091,VALID,274,VALID,0.623047,
2011-03-28, 03:13:04,VALID,1001.03,VALID,0,INVALID,163.739,VALID,0.100563,VALID,24.091,VALID,340,VALID,0.539453,
2011-03-28, 03:14:04,VALID,1001.05,VALID,0,INVALID,163.701,VALID,0,VALID,24.1123,VALID,346,VALID,0.610547,
2011-03-28, 03:15:04,VALID,1001.07,VALID,0,INVALID,163.731,VALID,0,VALID,24.1105,VALID,354,VALID,0.858984,
2011-03-28, 03:16:04,VALID,1001.04,VALID,0,INVALID,163.723,VALID,0.100563,VALID,24.1105,VALID,283,VALID,0.859766,
2011-03-28, 03:17:04,VALID,1001.08,VALID,0,INVALID,163.716,VALID,0,VALID,24.1513,VALID,285,VALID,0.447266,
2011-03-28, 03:18:04,VALID,1001.12,VALID,0,INVALID,163.731,VALID,0,VALID,24.1105,VALID,348,VALID,0.477734,
2011-03-28, 03:19:04,VALID,1001.1,VALID,0,INVALID,163.731,VALID,0,VALID,24.1105,VALID,349,VALID,0.455469,
2011-03-28, 03:20:04,VALID,1001.08,VALID,0,INVALID,163.716,VALID,0,VALID,24.1318,VALID,350,VALID,0.971094,
2011-03-28, 03:21:04,VALID,1001.09,VALID,0,INVALID,163.716,VALID,0,VALID,24.1105,VALID,348,VALID,0.336328,
2011-03-28, 03:22:04,VALID,1001.08,VALID,0,INVALID,163.731,VALID,0,VALID,24.1318,VALID,352,VALID,0.888281,
2011-03-28, 03:23:04,VALID,1001.06,VALID,0,INVALID,163.723,VALID,0,VALID,24.1105,VALID,2,VALID,0.869922,
2011-03-28, 03:24:04,VALID,1001.08,VALID,0,INVALID,163.723,VALID,0,VALID,24.1105,VALID,359,VALID,0.446875,
2011-03-28, 03:25:04,VALID,1001.06,VALID,0,INVALID,163.754,VALID,0,VALID,24.1105,VALID,340,VALID,0.698828,
2011-03-28, 03:26:04,VALID,1001.03,VALID,0,INVALID,163.716,VALID,0,VALID,24.1105,VALID,358,VALID,0.166797,
2011-03-28, 03:27:04,VALID,1001.04,VALID,0,INVALID,163.723,VALID,0,VALID,24.13,VALID,353,VALID,1.1043,
2011-03-28, 03:28:04,VALID,1001,VALID,0,INVALID,163.716,VALID,0,VALID,24.1318,VALID,349,VALID,1.13945,
2011-03-28, 03:29:04,VALID,1001,VALID,0,INVALID,163.708,VALID,0,VALID,24.1318,VALID,347,VALID,1.07695,
2011-03-28, 03:30:04,VALID,1001.02,VALID,0,INVALID,163.731,VALID,0,VALID,24.1318,VALID,334,VALID,0.476172,
2011-03-28, 03:31:04,VALID,1001.01,VALID,0,INVALID,163.762,VALID,0,VALID,24.1494,VALID,347,VALID,1.0875,
2011-03-28, 03:32:04,VALID,1001.02,VALID,0,INVALID,163.731,VALID,0,VALID,24.13,VALID,353,VALID,1.17305,
2011-03-28, 03:33:04,VALID,1001,VALID,0,INVALID,163.739,VALID,0,VALID,24.1281,VALID,347,VALID,0.632422,
2011-03-28, 03:34:04,VALID,1001,VALID,0,INVALID,163.716,VALID,0,VALID,24.1902,VALID,355,VALID,1.20664,
2011-03-28, 03:35:04,VALID,1000.98,VALID,0,INVALID,163.701,VALID,0,VALID,24.1689,VALID,347,VALID,0.995313,
2011-03-28, 03:36:04,VALID,1001,VALID,0,INVALID,163.708,VALID,0,VALID,24.2291,VALID,349,VALID,0.537109,
2011-03-28, 03:37:04,VALID,1001,VALID,0,INVALID,163.731,VALID,0,VALID,24.2078,VALID,303,VALID,0.410156,
2011-03-28, 03:38:04,VALID,1000.99,VALID,0,INVALID,163.693,VALID,0,VALID,24.1671,VALID,328,VALID,0.589063,
2011-03-28, 03:39:04,VALID,1001,VALID,0,INVALID,163.708,VALID,0.100563,VALID,24.2273,VALID,311,VALID,0.375,
2011-03-28, 03:40:04,VALID,1001.02,VALID,0,INVALID,163.723,VALID,0,VALID,24.2273,VALID,322,VALID,0.498047,
2011-03-28, 03:41:04,VALID,1001.01,VALID,0,INVALID,163.716,VALID,0,VALID,24.2078,VALID,351,VALID,0.802734,
2011-03-28, 03:42:04,VALID,1001.02,VALID,0,INVALID,163.708,VALID,0,VALID,24.2078,VALID,330,VALID,0.322266,